Regional Weather Roundup
Issued by NWS

Home | Current Version | Previous Version | Text Only | Print | Product List | Glossary On
Versions: 1 2 3 4 5 6 7 8 9 10 11 12 13 14 15 16 17 18 19 20 21 22 23 24 25 26 27 28 29 30 31 32 33 34 35 36 37 38 39 40 41 42 43 44 45 46 47 48 49 50
000
ASUS44 KLIX 121310
RWRLA
LOUISIANA WEATHER ROUNDUP
NATIONAL WEATHER SERVICE NEW ORLEANS LA
700 AM CST FRI FEB 12 2016

NOTE: "FAIR" INDICATES FEW OR NO CLOUDS BELOW 12,000 FEET WITH NO
      SIGNIFICANT WEATHER AND/OR OBSTRUCTIONS TO VISIBILITY.
      SKY/WX - SKY CONDITION AND SIGNIFICANT WEATHER.
      TMP - AIR TEMPERATURE.    DP   - DEWPOINT TEMPERATURE.
      RH  - RELATIVE HUMIDITY.  PRES - PRESSURE.
      HX  - HEAT INDEX.         WCI  - WIND CHILL INDEX.

*  THESE STATIONS ARE NOT NWS OR FAA STATIONS AND ARE NOT UNDER
   NWS QUALITY CONTROL.

LAZ040-048-061>063-065-066-069-121400-
SOUTHEAST LOUISIANA

CITY           SKY/WX    TMP DP  RH WIND       PRES   REMARKS
N.O. AUDUBON     N/A     53  53 100 MISG        N/A
N.O. INTL ARPT PTCLDY    57  53  86 SW7       30.24R
N.O. LAKEFRONT PTCLDY    55  54  96 SW8       30.25R
N.O. DOWNTOWN* NOT AVBL
RESERVE*       PTSUNNY   56  54  94 SW5       30.24S FOG
SLIDELL        CLOUDY    57  57 100 CALM      30.24R FOG
BATON ROUGE    FOG       55  54  96 W5        30.23R VSB 1/4
BOOTHVILLE     CLEAR     58  56  93 SW7       30.26R
BELLE CHASSE   PTCLDY    56  54  93 W5        30.25R FOG
BOGALUSA*        N/A     63  57  81 W7        30.23S
GALLIANO*      SUNNY     53  52  96 SW6       30.25R FOG
NEW ROADS*     CLOUDY    57  56  99 W3        30.23R
GONZALES*      FOG       53  53 100 SW3       30.23S VSB 3/4
HAMMOND*       CLOUDY    57  55  94 W5        30.23R FOG
HOUMA*         CLEAR     55  55 100 SW6       30.25R
PORT FOURCHON* SUNNY     59  57  94 SW6       30.26R

$$

LAZ041-044-053-054-121400-
SOUTHWEST LOUISIANA

CITY           SKY/WX    TMP DP  RH WIND       PRES   REMARKS
LAKE CHARLES   FOG       50  49  96 CALM      30.23R VSB 1/4
LAFAYETTE      CLOUDY    53  52  96 CALM      30.23S
PATTERSON      PTCLDY    54  52  94 SW5       30.26R
SALT POINT       N/A     55  54  96 CALM      30.24R
NEW IBERIA     FOG       48  48 100 CALM      30.25R VSB 1/4
CHENAULT AIRPK FOG       48  48 100 CALM      30.23R VSB 1/2

$$

LAZ027-028-121400-
CENTRAL LOUISIANA

CITY           SKY/WX    TMP DP  RH WIND       PRES   REMARKS
FORT POLK      CLOUDY    58  57  97 W6        30.22R FOG
ALEXANDRIA INT MOCLDY    58  56  93 W8        30.21R
ALEXANDRIA     PTCLDY    59  55  87 W5        30.22R

$$

LAZ001-002-121400-
NORTHWEST LOUISIANA

CITY           SKY/WX    TMP DP  RH WIND       PRES   REMARKS
SHREVEPORT     CLEAR     43  35  73 N8        30.22R
BARKSDALE AFB  CLEAR     38  32  79 N5        30.22R WCI  34
DTN SHREVEPORT CLEAR     41  32  70 N6        30.22R

$$

LAZ014-016-121400-
NORTHEAST LOUISIANA

CITY           SKY/WX    TMP DP  RH WIND       PRES   REMARKS
MONROE         CLEAR     38  32  79 N5        30.23R WCI  34
TALLULAH       CLEAR     39  35  86 NW3       30.22R

$$




USA.gov is the U.S. government's official web portal to all federal, state and local government web resources and services.